Regional Weather Roundup
Issued by NWS Sioux Falls, SD

Home | Current Version | Previous Version | Graphics & Text | Print | Product List | Glossary On
Versions: 1 2 3 4 5 6 7 8 9 10 11 12 13 14 15 16 17 18 19 20 21 22 23 24 25 26 27 28 29 30 31 32 33 34 35 36 37 38 39 40 41 42 43 44 45 46 47 48 49 50
000
ASUS43 KFSD 312110
RWRFSD

WEATHER ROUNDUP FOR SE SOUTH DAKOTA/SW MINNESOTA/NW IOWA
NATIONAL WEATHER SERVICE SIOUX FALLS SD
400 PM CDT MON AUG 31 2015

NOTE: "FAIR" INDICATES FEW OR NO CLOUDS BELOW 12,000 FEET WITH NO
SIGNIFICANT WEATHER AND OR OBSTRUCTIONS TO VISIBILITY.


SDZ038>040-050-052>070-312200-
SOUTHEAST SOUTH DAKOTA

CITY           SKY/WX    TMP DP  RH WIND       PRES   REMARKS
BROOKINGS      FAIR      82  70  65 S15       29.88S
CHAMBERLAIN    FAIR      81  64  55 N8        29.88S
HURON          FAIR      81  65  58 NW13      29.85R
MADISON        FAIR      82  70  65 S16       29.88R
MITCHELL       FAIR      89  64  43 SW6       29.83S
SIOUX FALLS    FAIR      82  69  64 S16G24    29.86F
WINNER         FAIR      81  60  48 N12       29.92S
YANKTON        FAIR      84  70  61 S15       29.85S
$$

MNZ071-072-080-081-089-090-097-098-312200-
SOUTHWEST MINNESOTA

CITY           SKY/WX    TMP DP  RH WIND       PRES   REMARKS
FAIRMONT       FAIR      82  64  54 S15       29.91F
JACKSON        FAIR      82  68  61 S17G23    29.92F
LUVERNE        FAIR      82  68  61 S13G20    29.89S
MARSHALL       FAIR      84  66  54 S20G25    29.87S
MONTEVIDEO     FAIR      88  70  55 SW13G21   29.85S
PIPESTONE      FAIR      81  68  65 S13G23    29.88F
REDWOOD FALLS  FAIR      84  67  56 S20       29.86F
TRACY          FAIR      83  69  63 S14G22    29.88S
WINDOM         FAIR      82  66  57 S17G25    29.90S
WORTHINGTON    FAIR      81  66  61 S21       29.90F
$$

IAZ001>003-012>014-020>022-031-032-NEZ013-014-SDZ071-312200-
NORTHWEST IOWA

CITY           SKY/WX    TMP DP  RH WIND       PRES   REMARKS
CHEROKEE       FAIR      81  69  65 S15G21    29.91F
DENISON        FAIR      81  70  69 S12G18    29.92S
ESTHERVILLE    FAIR      81  69  67 S14G23    29.91F
LE MARS        FAIR      82  70  65 S13G23    29.89F
ORANGE CITY    FAIR      82  70  65 S15       29.90S
SHELDON        FAIR      81  68  65 S14G22    29.89F
SIOUX CITY     FAIR      84  69  60 S16       29.89F
SPENCER        FAIR      83  67  58 S17       29.91F
STORM LAKE     FAIR      81  70  69 S20       29.93F
$$

ABBREVIATIONS USED IN REMARKS
   TC - TEMPERATURE IN CELSIUS
  WCI - WIND CHILL INDEX
   HX - HEAT INDEX
  VSB - VISIBILITY



USA.gov is the U.S. government's official web portal to all federal, state and local government web resources and services.